Location: North Evanston
(42.0634°N, 87.6976°W)
Time: 20:40:21
(UTC+00:00)

Transit 2A - Pass Details

Date: 12 May 2026
Orbit: 595 x 948 km, 66.7° (Epoch: 9 June)

Event Time Altitude Azimuth Distance (km) Brightness Sun altitude
Rises 07:29:02 0° 326° (NNW) 3,171 9.6 -25.3°
Reaches altitude 10° 07:31:32 10° 324° (NW) 2,188 8.7 -25.1°
Enters shadow 07:35:26 51° 295° (WNW) 848 6.1 -24.8°
Maximum altitude 07:36:23 63° 244° (WSW) 737 - -24.7°
Drops below altitude 10° 07:40:49 10° 163° (SSE) 1,995 - -24.3°
Sets 07:43:00 0° 160° (SSE) 2,867 - -24.1°
